RH
28 28 27 27 27 27 26 26 26 25 25 24 24 24 24 24 24 25 26 27 27 27 27 26 26 26 25 25 26 26 26 26 26 26 27 28 28 28 28 28 28 28 28 29 29 29 29 28 28 28 28 28
29 28 29 28 28 27 26 26 26 26 27 27 27 26 26 27 28 28 28 29 29 29 29 29 29 29 28 28 28 28 28 28 28 28 28 28 28 28 28 28 28 28 28 28 29 30 30 30 30 30 30 30
30 31 32 31 29 29 29 29 29 29 29 29 29 29 30 30 30 30 30 31 31 32 31 32 32 32 31 31 30 29 29 28 28 28 28 28 28 27 27 26 26 26 27 27 28 29 30 30 31 31 32 32
34 35 35 33 32 33 32 31 31 31 31 31 31 32 32 32 33 34 35 35 35 34 33 34 34 34 33 32 31 31 31 31 30 29 28 28 27 28 27 28 28 28 29 29 29 30 30 30 30 31 32 32
40 38 36 36 36 36 34 34 34 34 34 34 34 35 35 35 36 37 37 37 36 36 36 37 37 36 35 35 35 37 37 36 35 34 33 32 32 32 32 32 32 32 32 31 30 30 30 30 30 30 30 31
42 40 39 39 39 38 38 37 37 36 37 37 37 38 38 38 38 39 39 40 39 39 39 38 37 36 36 38 40 42 41 39 39 38 37 36 36 35 36 36 36 37 36 36 35 35 35 34 33 33 32 32
43 42 42 43 43 43 41 40 40 39 40 41 41 41 41 42 42 43 43 43 42 40 39 38 37 38 39 41 43 43 41 38 38 37 37 38 40 42 43 44 44 44 45 45 44 43 42 40 38 37 35 34
45 45 46 47 48 46 45 44 44 45 45 45 45 44 43 43 43 43 43 42 41 39 38 37 37 37 39 40 40 38 36 35 36 37 39 40 43 45 47 47 48 47 46 45 44 42 40 39 39 38 38 37
47 47 48 49 50 49 49 50 51 51 50 48 46 43 42 41 41 40 39 38 36 36 35 34 34 35 35 35 34 34 34 36 37 38 39 40 43 45 46 46 45 43 41 39 37 37 37 38 40 41 42 42
47 47 48 49 50 52 53 55 55 53 49 45 41 40 39 39 38 37 36 35 35 35 35 35 35 35 35 35 35 36 37 38 38 40 42 46 50 51 50 47 45 43 42 43 44 46 48 49 50 50 49 48
51 52 52 54 55 56 56 55 52 48 43 39 38 37 37 37 36 36 35 35 35 35 36 36 36 36 36 36 37 38 39 41 43 46 51 54 56 54 51 48 46 46 46 48 49 50 50 50 50 49 48 46
52 54 56 57 58 56 52 49 44 40 37 36 37 37 38 37 36 34 32 32 32 33 34 35 36 36 36 37 39 41 43 45 48 51 53 53 51 47 45 43 43 42 42 42 42 42 42 42 41 39 38 36
52 54 56 55 52 48 44 40 37 35 35 36 39 40 39 37 33 31 30 30 31 31 33 33 34 34 35 37 39 41 43 45 47 48 47 45 42 40 38 38 38 37 37 36 35 34 33 31 29 28 27 26
61 60 57 52 47 44 42 39 38 37 38 39 41 40 37 34 32 31 30 30 30 31 31 32 32 33 35 36 37 38 40 41 42 42 41 40 39 38 38 37 36 35 33 30 28 26 25 23 22 21 20 20
68 62 56 51 48 48 46 44 42 41 41 41 41 39 38 37 36 34 33 33 33 33 33 34 35 36 37 37 38 40 41 42 43 43 43 43 41 40 39 36 33 29 27 25 23 22 20 19 18 18 17 17
66 59 54 52 51 51 51 48 46 45 45 44 43 42 42 41 39 38 37 36 36 36 37 37 37 38 39 41 42 44 46 47 47 46 44 42 39 37 33 30 26 23 21 20 19 18 18 18 18 18 19 19
60 55 53 53 52 53 53 52 51 50 48 46 43 42 40 38 37 36 36 37 37 37 37 38 39 41 43 45 47 48 48 48 45 42 38 34 31 29 26 24 22 20 19 19 20 21 22 22 23 23 23 23
57 55 54 55 55 54 56 57 56 52 47 44 41 39 38 36 36 36 36 36 37 38 40 42 45 47 49 50 50 48 45 42 39 35 31 28 27 26 25 24 23 23 24 25 26 26 27 27 27 27 26 25
60 58 57 59 59 60 62 62 57 50 45 42 41 39 39 38 38 38 38 40 42 46 49 51 51 51 50 49 47 44 41 38 35 32 30 29 29 29 28 28 28 29 30 31 31 31 31 31 31 29 26 24
64 63 64 66 67 67 65 60 52 47 45 43 42 42 42 42 43 44 47 51 53 55 55 53 51 48 46 44 41 39 36 34 32 31 32 32 32 32 33 34 35 36 36 36 35 34 33 31 29 27 24 21
70 70 72 72 72 69 62 55 49 47 46 45 46 47 48 49 51 55 57 57 56 55 52 49 47 45 42 38 36 34 32 32 32 33 33 33 34 35 37 40 41 41 39 37 35 32 30 27 25 23 21 18
78 78 78 76 72 65 57 51 48 48 47 48 51 53 54 55 57 59 58 56 54 52 51 49 47 42 37 34 33 32 32 33 34 35 35 35 35 38 41 43 42 39 36 32 30 28 25 23 22 20 18 16
87 85 80 75 67 58 53 51 51 50 50 52 56 57 58 58 58 58 57 57 56 55 52 48 43 38 35 33 33 34 35 36 37 37 37 38 39 41 41 40 36 33 30 28 26 24 23 21 20 18 16 14
94 87 79 69 61 58 58 57 55 53 54 57 59 60 59 59 59 60 60 59 55 50 45 41 39 36 34 33 35 38 40 41 40 39 39 40 40 39 36 33 30 28 26 24 23 21 20 18 16 15 13 12
94 82 72 65 64 67 65 60 56 54 56 59 60 59 58 59 62 61 57 51 44 40 38 38 36 34 35 38 42 44 43 42 41 40 40 38 35 31 28 25 23 21 20 18 17 16 15 14 13 12 11 10
83 71 65 67 72 71 65 58 53 51 53 54 54 55 59 64 62 53 44 38 35 36 37 36 35 38 45 48 48 46 44 42 40 38 34 30 26 23 21 19 17 16 15 14 13 13 12 12 11 11 10 9
72 66 67 73 74 68 62 55 49 47 48 49 52 59 66 65 55 44 38 34 34 35 36 37 44 51 53 51 48 45 42 40 36 32 26 22 20 18 17 15 14 14 13 12 12 12 11 11 10 10 10 9
67 67 73 75 71 67 61 54 48 46 46 50 58 65 69 64 53 45 39 34 34 37 41 48 55 56 52 48 45 42 40 35 30 25 20 19 17 16 15 14 13 13 12 12 11 11 10 10 10 9 9 9
67 73 78 75 72 69 62 55 50 47 49 56 62 65 65 61 55 50 40 35 39 44 52 58 58 53 49 45 42 40 36 30 24 20 18 17 16 15 14 14 13 12 11 11 10 10 10 9 9 9 9 9
73 82 85 80 75 69 62 56 51 50 54 59 61 61 60 59 58 53 42 38 44 51 59 62 57 52 46 43 41 37 31 25 21 19 17 16 15 15 15 14 12 11 11 10 10 10 10 10 10 10 10 10
81 91 91 84 76 68 61 56 52 53 57 60 60 59 57 58 59 52 42 43 50 56 62 62 56 50 45 42 39 33 27 22 20 17 16 16 15 16 15 13 12 11 11 10 10 11 10 11 10 10 10 10
Wind_Speed
14 15 17 19 20 22 23 24 25 27 28 30 31 33 33 34 35 36 37 38 39 41 43 44 45 46 47 48 49 50 51 52 53 54 55 56 57 58 59 60 62 63 64 65 66 67 67 68 69 70 70 70
15 17 18 20 22 23 24 25 26 27 29 30 32 33 34 35 36 37 38 40 41 43 44 45 46 48 49 49 50 51 52 53 54 55 56 57 58 59 60 61 62 63 65 66 67 68 69 70 71 72 72 73
17 18 20 21 22 23 24 26 27 28 30 31 32 34 35 36 38 39 41 43 44 45 46 47 48 49 50 51 51 52 54 55 56 57 58 59 60 61 62 63 64 64 65 66 67 68 69 70 71 72 73 74
20 21 22 23 24 25 27 28 29 30 31 33 34 36 37 39 40 42 44 45 46 47 48 49 50 51 52 52 53 54 56 57 58 60 60 61 62 63 63 64 65 66 66 67 67 68 69 70 71 72 72 73
22 23 23 24 26 28 29 30 31 32 33 35 36 37 39 41 42 44 45 47 48 49 50 51 52 53 54 55 56 57 58 60 61 61 62 63 64 64 65 66 66 67 68 69 69 70 71 71 72 72 73 74
23 24 25 27 28 29 30 31 33 34 35 36 38 39 41 42 44 46 47 48 50 51 51 53 54 55 56 57 58 59 60 61 62 63 63 64 65 66 67 67 68 69 71 72 73 73 74 74 75 76 76 77
23 25 26 28 29 31 32 33 34 35 36 37 39 40 42 44 45 47 48 49 51 52 53 54 56 57 58 58 60 61 62 62 63 64 65 65 66 67 68 69 70 71 72 74 75 76 77 78 79 80 80 81
25 26 28 29 31 32 33 34 35 36 37 39 40 42 44 45 46 47 49 50 52 53 55 56 57 58 59 60 61 62 63 64 64 65 66 67 68 69 70 71 72 73 74 76 77 78 80 81 83 84 85 86
27 28 30 31 32 33 34 35 36 38 39 41 43 44 45 46 47 49 50 51 52 54 55 56 57 59 59 61 62 62 63 64 66 67 68 69 70 71 72 74 75 77 78 80 82 83 84 86 87 88 89 90
30 30 31 32 33 34 36 37 39 40 42 44 45 45 46 47 48 49 50 51 53 54 55 57 58 59 60 61 62 63 64 66 67 68 69 70 72 73 75 77 79 81 82 84 85 87 88 89 90 91 93 94
31 32 32 33 35 36 38 39 41 43 44 45 45 45 46 46 47 49 50 52 53 55 56 57 59 60 61 62 63 64 66 67 68 69 70 72 74 76 78 80 82 84 85 86 87 89 90 91 92 94 95 97
32 32 34 35 37 39 41 43 44 45 45 45 45 45 46 47 49 50 51 53 54 55 56 58 59 60 61 62 64 65 67 68 69 71 72 74 77 79 81 83 84 86 87 89 90 92 93 94 96 97 98 100
33 34 35 38 40 42 44 45 45 46 46 46 46 47 48 49 50 52 52 54 55 56 57 59 60 61 62 63 65 66 68 69 71 73 75 78 80 82 83 85 87 89 90 92 93 94 96 97 99 100 101 103
35 37 39 41 43 44 45 45 45 45 46 46 47 48 49 50 52 53 54 55 57 58 59 60 61 62 63 64 66 67 69 71 73 75 78 80 82 84 86 88 89 91 92 94 95 97 98 99 100 101 102 103
37 39 41 43 44 44 43 43 44 44 45 47 48 49 51 52 53 54 56 57 58 59 61 62 63 64 65 66 68 70 72 74 76 78 81 83 85 87 88 90 91 93 94 95 96 97 98 99 100 100 102 103
39 40 42 43 43 43 42 43 44 45 47 49 51 52 53 53 54 55 57 58 60 61 62 63 65 66 68 69 71 73 75 77 79 81 83 85 86 88 90 92 93 94 95 96 96 97 98 100 101 103 105 107
41 41 43 44 43 43 43 45 47 48 50 51 52 53 53 54 56 57 58 60 61 62 64 65 67 68 70 72 74 76 78 80 82 84 85 87 88 90 92 93 95 95 96 97 98 100 102 104 106 108 109 111
42 43 44 44 45 45 46 48 50 51 51 52 52 53 55 56 57 59 60 61 63 64 65 67 68 70 72 74 76 78 80 81 83 85 87 88 90 92 93 94 95 97 98 100 102 104 106 108 110 112 113 114
44 44 45 46 47 48 49 51 52 52 53 53 55 56 58 59 60 61 62 64 65 66 67 69 71 73 74 76 78 79 81 82 84 86 88 90 91 93 94 96 97 99 102 104 106 108 110 111 113 115 116 118
45 46 48 49 49 50 51 53 54 55 56 57 58 60 61 62 63 63 64 65 66 67 69 71 72 74 75 77 79 81 82 84 85 86 87 89 91 93 95 98 100 103 105 107 109 111 112 114 115 117 119 121
47 49 50 51 52 53 54 55 56 57 59 60 61 62 63 64 64 65 65 66 68 69 70 72 73 75 77 79 81 82 83 83 84 86 87 89 92 94 97 99 102 104 107 108 110 112 114 116 117 120 122 124
49 51 52 52 53 54 56 57 58 60 61 62 63 64 64 65 66 66 67 68 69 70 71 73 75 78 80 81 81 82 82 83 84 86 89 91 93 95 97 100 103 105 107 109 111 113 116 118 120 123 125 127
51 52 53 53 55 56 58 59 60 61 63 64 64 65 66 66 67 67 67 68 70 71 73 75 78 79 80 80 81 81 83 84 86 88 90 92 94 96 98 100 103 105 108 110 113 115 118 122 125 127 129 131
52 53 54 55 56 57 59 60 62 64 65 65 66 66 67 67 67 67 68 70 72 74 76 77 78 79 79 80 81 82 84 86 88 89 91 92 94 96 98 101 103 106 109 112 116 119 123 126 129 132 134 135
53 54 55 56 57 58 60 62 64 65 66 66 67 67 67 66 66 68 70 72 74 76 77 77 78 78 79 80 81 83 85 86 88 90 91 91 93 95 98 100 103 105 108 112 116 120 125 129 133 136 139 141
54 55 56 56 57 59 62 64 66 67 67 68 68 68 66 65 66 69 72 74 76 76 77 77 78 78 79 81 82 84 86 87 88 89 90 92 94 96 98 100 102 105 108 111 115 119 123 128 133 139 143 146
55 56 56 57 59 62 64 66 68 68 69 69 68 66 63 65 68 72 75 77 77 78 78 78 78 79 81 82 84 85 86 87 88 89 91 93 96 98 100 102 105 107 110 113 116 119 123 127 131 136 142 145
57 57 58 60 62 65 67 68 69 70 70 69 67 64 64 66 71 75 78 80 80 79 79 78 79 80 82 84 84 85 86 88 89 90 93 95 97 100 103 106 109 111 113 116 119 122 124 127 130 133 136 138
58 58 60 62 64 66 68 69 70 70 70 69 66 65 67 70 74 78 81 82 82 80 79 79 81 82 84 85 85 86 87 88 90 92 95 98 101 104 107 111 113 115 118 121 123 125 126 128 129 129 129 130
60 60 61 64 66 68 69 69 70 71 70 69 68 68 71 74 78 81 84 84 82 80 80 80 82 84 85 86 86 87 88 89 92 95 98 101 105 109 112 115 117 119 122 125 126 127 128 128 128 126 125 124
61 61 63 65 67 68 69 69 70 71 71 70 70 72 75 78 81 84 86 85 82 81 81 82 84 86 87 88 88 89 89 92 95 98 101 105 109 113 116 118 120 122 124 126 126 127 127 127 126 124 122 120
Wind_Direction
285 285 285 285 285 284 284 285 285 285 286 287 288 289 289 290 290 291 292 293 294 295 295 296 296 296 295 295 294 293 292 291 290 289 288 287 286 286 285 284 284 283 282 282 281 280 280 279 278 278 278 277
290 290 290 289 288 288 288 288 288 289 290 290 291 291 291 291 292 293 294 295 296 297 297 298 298 298 298 297 296 295 294 293 292 291 290 289 288 287 287 286 285 285 284 284 283 282 282 281 280 279 279 278
293 292 291 291 291 291 292 292 293 293 292 292 292 292 292 293 294 295 296 297 299 299 300 300 300 299 299 297 296 295 295 294 293 292 292 291 290 289 289 289 288 288 288 287 286 286 285 284 283 283 282 281
295 294 294 294 295 296 297 297 297 295 295 294 294 294 295 296 297 298 299 300 301 302 302 302 301 300 299 298 297 297 297 296 296 295 294 293 292 292 292 292 291 291 290 289 289 288 288 287 286 285 285 284
297 297 296 298 299 300 300 300 299 298 298 298 298 298 298 299 300 301 301 302 302 302 302 302 301 301 301 300 299 299 299 298 297 296 295 295 294 293 293 293 292 292 291 291 290 290 289 288 288 287 286 285
297 297 297 298 300 301 301 301 301 301 301 301 301 302 302 303 303 303 303 303 302 302 302 302 302 301 301 300 300 299 298 298 297 296 295 295 294 294 294 294 293 293 293 293 293 292 291 291 290 289 288 287
298 296 296 298 300 301 302 303 303 303 304 304 305 305 306 305 304 304 303 302 302 302 302 302 302 301 301 300 299 298 298 297 297 296 296 296 295 295 294 294 294 294 293 293 293 292 292 291 290 290 289 288
298 296 296 297 299 301 302 303 304 305 306 306 307 307 306 305 304 303 302 302 302 302 302 301 301 300 300 299 298 298 298 298 298 298 297 296 295 294 293 293 292 292 291 291 291 291 291 291 291 291 290 290
298 296 296 296 298 300 302 304 305 306 307 307 307 306 306 304 303 303 302 302 302 302 301 301 300 300 299 299 299 299 299 299 298 298 297 296 296 295 294 293 293 293 293 293 293 293 293 293 293 293 292 292
300 299 298 298 299 300 302 304 305 306 307 307 306 306 305 304 304 303 303 303 302 302 301 301 300 300 300 300 300 300 300 300 300 299 299 298 297 297 296 295 295 296 296 296 296 296 296 295 294 293 292 292
303 302 301 301 302 303 304 305 306 307 307 306 306 305 305 305 305 304 304 303 303 302 302 301 301 301 301 301 301 301 301 301 301 301 300 299 298 297 297 297 297 297 297 296 296 295 294 293 292 291 290 289
303 303 304 305 307 307 308 308 308 308 307 307 306 306 306 306 306 306 306 305 304 304 303 303 302 302 303 303 303 303 302 302 301 300 299 298 298 297 298 298 297 297 296 295 294 292 291 290 289 288 287 287
308 309 310 311 311 311 310 310 309 309 308 307 307 307 307 307 308 308 307 307 306 305 304 304 303 303 303 303 303 302 302 301 300 299 299 298 298 298 297 297 296 295 294 293 292 291 290 289 289 288 288 287
312 313 313 313 313 313 312 312 311 310 309 308 308 309 309 310 310 309 309 308 307 306 305 304 304 304 303 302 302 301 300 299 299 298 298 298 298 297 296 296 295 294 293 293 292 292 292 291 291 290 290 289
312 312 312 313 313 314 313 313 312 311 311 310 310 310 311 311 310 310 308 307 306 305 305 304 304 303 302 301 300 300 299 299 299 298 298 297 297 296 295 295 295 294 294 294 294 293 293 293 292 292 291 290
310 310 311 313 314 314 313 313 312 312 311 311 311 311 311 311 310 309 308 307 306 306 305 304 303 303 302 301 301 300 300 300 299 298 297 297 297 296 296 296 296 296 296 296 296 295 295 295 294 294 293 293
309 310 312 314 314 313 312 312 312 311 311 311 311 311 311 311 310 309 308 308 307 306 306 305 304 303 302 302 301 300 300 299 299 299 299 299 299 299 299 299 299 299 299 299 299 298 298 297 297 296 296 295
309 311 313 313 312 311 310 310 311 312 312 311 311 311 311 311 310 310 309 309 308 308 307 306 304 303 302 301 300 300 300 301 301 302 302 302 301 301 301 301 302 302 302 301 301 300 299 299 298 297 296 295
310 311 312 312 311 311 310 310 311 311 312 312 312 312 312 311 311 311 311 311 310 309 307 305 304 303 302 302 302 302 303 303 304 304 303 303 303 303 303 304 304 303 303 302 301 301 300 299 298 297 296 295
310 311 311 312 311 311 311 311 312 312 312 313 313 313 313 313 313 313 312 311 309 307 306 305 304 304 304 305 305 305 305 305 305 304 304 304 304 304 305 305 304 304 303 302 302 301 300 299 298 297 296 295
310 311 312 312 312 312 312 313 313 313 314 314 315 315 315 314 314 312 311 309 308 307 306 306 306 307 307 307 307 307 306 306 305 305 305 305 305 305 305 305 304 303 303 302 301 300 299 298 297 296 296 296
310 311 312 313 313 313 314 314 314 315 316 316 316 316 315 314 312 311 310 309 308 308 308 309 309 309 308 308 308 307 307 306 306 306 306 306 307 306 306 305 304 303 302 301 300 299 298 298 297 296 296 297
311 312 313 313 314 314 315 315 316 317 318 318 317 315 313 312 310 310 309 309 309 310 310 309 309 309 309 308 308 308 308 308 308 308 308 308 308 307 306 304 303 302 302 301 300 299 298 297 297 297 297 298
312 313 314 314 315 315 316 317 318 318 318 317 315 313 312 311 310 311 311 311 311 311 310 310 310 309 309 309 309 310 310 310 309 309 309 309 308 307 305 304 304 303 302 302 301 300 299 299 299 299 299 299
312 313 314 315 316 316 317 318 318 318 317 315 314 312 311 311 312 313 314 313 313 312 312 311 310 310 310 311 311 311 311 310 310 310 310 308 307 306 306 306 305 305 304 303 303 303 302 302 302 301 301 301
313 314 315 315 316 316 317 318 318 317 316 314 313 312 312 313 315 316 316 315 315 314 312 312 312 313 313 313 312 312 311 311 311 310 309 309 308 308 308 307 306 306 305 305 305 304 304 304 303 302 302 302
313 314 314 314 315 316 317 318 318 317 316 314 313 313 313 314 316 317 317 317 316 315 314 315 315 315 314 313 313 312 312 311 311 310 311 311 312 311 311 310 309 308 308 307 307 306 305 304 304 303 303 303
314 315 314 314 315 316 317 318 318 317 316 314 313 312 311 312 314 316 318 318 317 317 317 317 316 315 314 313 313 312 312 312 311 312 313 314 314 314 313 313 313 312 310 309 308 307 306 305 304 304 304 304
315 315 314 314 315 316 317 318 317 317 315 314 312 310 310 311 313 316 318 319 318 318 318 317 315 315 314 314 313 313 312 312 313 314 315 315 315 316 316 316 315 313 312 310 309 308 308 307 306 306 306 306
316 315 314 314 316 317 318 318 317 316 314 313 311 310 310 312 314 316 318 319 319 319 318 316 315 314 314 314 313 313 312 313 314 315 316 317 318 319 319 318 317 315 313 312 312 311 310 309 309 310 310 310
316 315 314 315 317 317 318 317 316 315 314 312 311 311 312 314 315 316 318 318 319 318 317 316 315 314 314 314 313 313 312 313 315 317 318 320 322 322 322 320 318 317 315 315 315 314 314 313 313 313 313 312